This is the latest recevied weather packets stored in our database for station/object FHDOHA-13. If no packets are shown the sender has not sent any weather packets the latest 10 day(s).
| Time | Temp. | Humidity | Pressure | Rain* | Wind** | Luminosity | Snow |
|---|---|---|---|---|---|---|---|
| 1777656673 | 20.56° C | 36% | 1023.3 hPa | 0 mm | - | - | - |
| 1777655773 | 20.56° C | 35% | 1024.3 hPa | 0 mm | - | - | - |
| 1777654873 | 20.56° C | 34% | 1024.3 hPa | 0 mm | - | - | - |
| 1777653973 | 21.11° C | 33% | 1024.2 hPa | 0 mm | - | - | - |
| 1777653073 | 21.11° C | 32% | 1024.2 hPa | 0 mm | - | - | - |
| 1777652173 | 21.11° C | 31% | 1024.2 hPa | 0 mm | - | - | - |
| 1777651273 | 21.67° C | 31% | 1024.2 hPa | 0 mm | - | - | - |
| 1777650373 | 21.67° C | 31% | 1024.2 hPa | 0 mm | - | - | - |
| 1777649473 | 21.67° C | 30% | 1025.2 hPa | 0 mm | - | - | - |
| 1777647673 | 21.67° C | 30% | 1025.2 hPa | 0 mm | - | - | - |
| 1777646773 | 21.67° C | 30% | 1025.2 hPa | 0 mm | - | - | - |
| 1777645873 | 21.67° C | 30% | 1025.2 hPa | 0 mm | - | - | - |
| 1777644973 | 21.67° C | 27% | 1025.2 hPa | 0 mm | - | - | - |
| 1777644073 | 21.67° C | 29% | 1025.2 hPa | 0 mm | - | - | - |
| 1777643173 | 21.11° C | 30% | 1025.3 hPa | 0 mm | - | - | - |
| 1777642273 | 21.11° C | 30% | 1026.3 hPa | 0 mm | - | - | - |
| 1777641373 | 21.11° C | 32% | 1026.3 hPa | 0 mm | - | - | - |
| 1777640473 | 21.11° C | 31% | 1026.3 hPa | 0 mm | - | - | - |
| 1777639573 | 20.56° C | 32% | 1026.3 hPa | 0 mm | - | - | - |
| 1777638673 | 20.56° C | 34% | 1026.4 hPa | 0 mm | - | - | - |
| 1777637773 | 20° C | 34% | 1026.4 hPa | 0 mm | - | - | - |
| 1777636873 | 20° C | 34% | 1026.4 hPa | 0 mm | - | - | - |
| 1777635973 | 20° C | 34% | 1027.5 hPa | 0 mm | - | - | - |
| 1777635073 | 19.44° C | 36% | 1027.5 hPa | 0 mm | - | - | - |
| 1777634173 | 19.44° C | 36% | 1027.5 hPa | 0 mm | - | - | - |
* Rain latest hour (hover to see other rain measurements)
** Current wind speed in m/s (hover to see current wind gust speed)